Погода в Туркестане

Казахстан     43°18′02″N   68°16′13″E
темп.,
°C
ветер,
м/с
пор.,
м/с
влажн.,
%
обл.,
%
осадки,
мм/ч
давл.,
гПа
погр.,
м
9 декабря, чт
чт900:00+4в33630 0.0 103439
03:00+3св11630 0.0 103413
06:00+3в33520 0.0 103421
09:00+2в46460 0.0 103373
12:00+9всв69230 0.0 1033339
15:00+13всв79150 0.0 1030521
18:00+7в712320 0.0 1030238
21:00+5всв917250 0.0 1030323
10 декабря, пт
пт1000:00+6всв817230 0.0 1028317
03:00+7всв818220 0.0 1026351
06:00+6всв817290 0.0 1025335
09:00+6в715290 0.0 1025283
12:00+12в815140 0.0 1024534
15:00+14в812125 0.0 1021553
18:00+9в591886 0.0 1021132
21:00+6в462591 0.0 102279
11 декабря, сб
сб1100:00+5вюв5829100 0.0 1022101
03:00+5вюв4530100 0.0 102254
06:00+5вюв45315 0.0 102250
09:00+4вюв45366 0.0 102349
12:00+8ю33315 0.0 1024361
15:00+11зюз342447 0.0 1023771
18:00+8зюз333299 0.0 102422
21:00+6зсз3354100 0.0 102629
12 декабря, вс
вс1200:00+5сз2272100 0.0 102611
03:00+4зсз1186100 0.0 102610
06:00+3ю118991 0.0 102710
09:00+4вюв3387100 0.0 102816
12:00+7вюв2270100 0.0 1028295
15:00+9зюз1262100 0.0 1026706
18:00+8всв2267100 0.0 102627
21:00+7в2270100 0.0 102627
13 декабря, пн
пн1300:00+6в337299 0.0 102632
03:00+6в2277100 0.0 102521
06:00+6в3476100 0.2 102561
09:00+6в2383100 0.1 102525
12:00+9юв1263100 0.1 1026331
15:00+11св225590 0.0 1025630
18:00+8с22675 0.0 102511
21:00+6всв227697 0.0 102620